CAPE
60 49 33 29 35 79 40 10 43 38 74 1 35 0 0 0 0 0 0 0 0 0 0 0 0 0 0 0 0 0 0 0 0 0 0 0 0 0 0 0 0 0 0 0 0
46 51 52 29 1 0 1 19 0 21 48 49 19 0 0 0 0 0 1 0 0 0 0 0 0 0 0 0 0 0 0 0 0 0 0 0 0 0 0 0 0 0 0 0 0
8 33 37 9 2 7 0 0 0 0 15 37 33 24 0 0 0 0 16 0 0 0 0 0 0 0 0 0 0 0 0 0 0 0 0 0 0 0 0 0 0 0 0 0 0
4 1 0 0 0 3 0 0 32 2 6 58 24 4 0 0 0 0 6 0 0 0 0 0 0 0 0 0 0 0 0 0 0 0 0 0 0 0 0 0 0 0 0 0 0
0 0 0 0 0 0 2 2 36 21 137 100 6 0 0 0 0 0 0 0 0 0 0 0 0 0 0 0 0 0 0 0 0 0 0 0 0 0 0 0 0 0 0 0 0
0 0 0 0 0 0 2 23 42 37 142 2 30 0 0 0 0 0 0 0 0 0 0 0 0 0 0 0 0 0 0 0 0 0 0 0 0 0 0 0 0 0 0 0 0
52 11 0 0 3 13 23 73 73 48 7 12 1 0 0 0 0 0 0 0 0 0 0 0 0 0 0 0 0 0 0 0 0 0 0 0 0 0 0 0 0 0 0 0 0
42 55 4 14 26 21 68 98 56 2 3 2 0 0 0 0 0 0 0 0 0 0 0 0 0 0 0 0 0 0 0 0 0 0 0 0 0 0 0 0 0 0 0 0 0
71 19 21 20 12 35 75 69 32 26 18 1 0 0 0 0 0 0 0 0 0 0 0 0 0 0 0 0 0 0 0 0 0 0 0 0 0 0 0 0 0 0 0 0 0
33 22 40 16 21 16 1 0 4 0 0 0 0 0 0 0 0 0 0 0 0 0 0 0 0 0 0 0 0 0 0 0 0 0 0 0 0 0 0 0 0 0 0 0 0
15 25 3 11 0 0 0 0 0 0 0 2 0 0 0 0 0 0 0 0 0 0 0 0 0 0 0 0 0 0 0 0 0 0 0 0 0 0 0 0 0 0 0 0 0
16 4 10 16 7 0 0 0 1 0 3 7 4 0 0 0 0 0 0 0 0 0 0 0 0 0 0 0 0 0 0 0 0 0 0 0 0 0 0 0 0 0 0 0 0
4 7 0 1 0 0 0 0 0 0 0 0 0 0 0 0 0 0 0 0 0 0 0 0 0 0 0 0 0 0 0 0 0 0 0 0 0 0 0 0 0 0 0 0 0
1 4 0 0 0 0 0 0 0 0 0 0 0 0 0 0 0 0 0 0 0 0 0 0 0 0 0 0 0 0 0 0 0 0 0 0 0 0 0 0 0 0 0 0 0
0 0 0 0 0 0 0 0 0 0 0 0 0 0 0 0 0 0 0 0 0 0 0 0 0 0 0 0 0 0 0 0 0 0 0 0 0 0 0 0 0 0 0 0 0
0 0 0 0 0 0 0 0 0 0 0 0 0 0 0 0 0 0 0 0 0 0 0 0 0 0 0 0 0 0 0 0 0 0 0 0 0 0 0 0 0 0 0 0 0
0 0 0 0 0 0 0 0 0 0 0 0 0 0 0 0 0 0 0 0 0 0 0 0 0 0 0 0 0 0 0 0 0 0 0 0 0 0 0 0 0 0 0 0 0
0 0 0 0 0 0 0 0 0 0 0 0 0 0 0 0 0 0 0 0 0 0 0 0 0 0 0 0 0 0 0 0 0 0 0 0 0 0 0 0 0 0 0 0 0
0 0 0 0 0 0 0 0 0 0 0 0 0 0 0 0 0 0 0 0 0 0 0 0 0 0 0 0 0 0 0 0 0 0 0 0 0 0 0 0 0 0 0 0 0
0 0 0 0 0 0 0 0 0 0 0 0 0 0 0 0 0 0 0 0 0 0 0 0 0 0 0 0 0 0 0 0 0 0 0 0 0 0 0 0 0 0 0 0 0
0 0 0 0 0 0 0 0 0 0 0 0 0 0 0 0 0 0 0 0 0 0 0 0 0 0 0 0 0 0 0 1 0 0 0 0 0 0 0 0 0 0 0 0 0
0 0 0 0 0 0 0 0 0 0 0 0 0 0 0 0 0 0 0 0 0 0 0 0 0 0 0 0 0 0 0 0 0 0 0 0 0 0 0 0 0 0 0 0 0
0 0 0 0 0 0 0 0 0 0 0 0 0 0 0 0 0 0 0 0 0 0 0 0 0 0 0 0 0 0 0 0 0 0 0 0 0 0 0 0 0 0 0 0 0
0 0 0 0 0 0 0 0 0 0 0 0 0 0 0 0 0 0 0 0 0 0 0 0 0 0 0 0 0 0 0 0 0 0 0 0 0 0 0 0 0 0 0 0 0
0 0 0 0 0 0 0 0 0 0 0 0 0 0 0 0 0 0 0 0 0 0 0 0 0 0 0 0 0 0 0 0 0 0 0 0 0 0 0 0 0 0 0 0 0
0 0 0 0 0 0 0 0 0 0 0 0 0 0 0 0 0 0 0 0 0 0 0 0 0 0 0 0 0 0 0 0 0 0 0 0 0 0 0 0 0 0 0 0 0
0 0 0 0 0 0 0 0 0 0 0 0 0 0 0 0 0 0 0 0 0 0 0 0 0 0 0 0 0 0 0 0 0 0 0 0 0 0 0 0 0 0 0 0 0
CIN
-0 -0 -1 -6 -0 -0 -6 -21 -0 -22 -0 -1 -0 -0 -0 -0 -0 -0 -0 -0 -0 -0 -0 -0 -0 -0 -0 -0 -0 -0 -0 -0 -0 -0 -0 -0 -0 -0 -0 -0 -0 -0 -0 -0 -0
-0 -2 -0 -20 -32 -0 -12 -13 -5 -6 -1 -0 -3 -0 -0 -0 -0 -0 -0 -0 -0 -0 -0 -0 -0 -0 -0 -0 -0 -0 -0 -0 -0 -0 -0 -0 -0 -0 -0 -0 -0 -0 -0 -0 -0
-0 -0 -2 -21 -34 -37 -0 -0 -10 -0 -19 -1 -2 -2 -0 -0 -0 -0 -0 -0 -0 -0 -0 -0 -0 -0 -0 -0 -0 -0 -0 -0 -0 -0 -0 -0 -0 -0 -0 -0 -0 -0 -0 -0 -0
-0 -0 -0 -0 -0 -39 -0 -0 -17 -28 -53 -0 -1 -7 -0 -0 -0 -0 -0 -0 -0 -0 -0 -0 -0 -0 -0 -0 -0 -0 -0 -0 -0 -0 -0 -0 -0 -0 -0 -0 -0 -0 -0 -0 -0
-0 -0 -0 -0 -0 -0 -37 -23 -4 -50 -15 -1 -2 -0 -0 -0 -1 -0 -0 -0 -0 -0 -0 -0 -0 -0 -0 -0 -0 -0 -0 -0 -0 -0 -0 -0 -0 -0 -0 -0 -0 -0 -0 -0 -0
-0 -0 -0 -0 -0 -0 -27 -8 -12 -17 -0 -0 -7 -0 -0 -0 -0 -0 -0 -0 -0 -0 -0 -0 -0 -0 -0 -0 -0 -0 -0 -0 -0 -0 -0 -0 -0 -0 -0 -0 -0 -0 -0 -0 -0
-14 -27 -0 -0 -5 -0 -0 -1 -2 -27 -43 -18 -11 -0 -0 -0 -0 -0 -0 -0 -0 -0 -0 -0 -0 -0 -0 -0 -0 -0 -0 -0 -0 -0 -0 -0 -0 -0 -0 -0 -0 -0 -0 -0 -0
-16 -23 -16 -6 -5 -1 -0 -0 -0 -60 -18 -24 -0 -0 -0 -0 -0 -0 -0 -0 -0 -0 -0 -0 -0 -0 -0 -0 -0 -0 -0 -0 -0 -0 -0 -0 -0 -0 -0 -0 -0 -0 -0 -0 -0
-5 -38 -0 -4 -8 -3 -0 -0 -1 -26 -15 -31 -0 -0 -0 -0 -0 -0 -0 -0 -0 -0 -0 -0 -0 -0 -0 -0 -0 -0 -0 -0 -0 -0 -0 -0 -0 -0 -0 -0 -0 -0 -0 -0 -0
-3 -3 -1 -3 -2 -0 -26 -0 -31 -0 -8 -22 -0 -0 -0 -0 -0 -0 -0 -0 -0 -0 -0 -0 -0 -0 -0 -0 -0 -0 -0 -0 -0 -0 -0 -0 -0 -0 -0 -0 -0 -0 -0 -0 -0
-7 -18 -15 -4 -8 -0 -0 -0 -0 -0 -1 -0 -0 -0 -0 -0 -0 -0 -0 -0 -0 -0 -0 -0 -0 -0 -0 -0 -0 -0 -0 -0 -0 -0 -0 -0 -0 -0 -0 -0 -0 -0 -0 -0 -0
-5 -25 -8 -3 -15 -2 -0 -0 -0 -0 -0 -1 -0 -0 -0 -0 -0 -0 -0 -0 -0 -0 -0 -0 -0 -0 -0 -0 -0 -0 -0 -0 -0 -0 -0 -0 -0 -0 -0 -0 -0 -0 -0 -0 -0
-8 -37 -12 -25 -0 -0 -0 -0 -0 -0 -0 -0 -0 -0 -0 -0 -0 -0 -0 -0 -0 -0 -0 -0 -0 -0 -0 -0 -0 -0 -0 -0 -0 -0 -0 -0 -0 -0 -0 -0 -0 -0 -0 -0 -0
-19 -28 -0 -0 -0 -0 -0 -0 -0 -0 -0 -0 -0 -0 -0 -0 -0 -0 -0 -0 -0 -0 -0 -0 -0 -0 -0 -0 -0 -0 -0 -0 -0 -0 -0 -0 -0 -0 -0 -0 -0 -0 -0 -0 -0
-0 -0 -0 -0 -0 -0 -0 -0 -0 -0 -0 -0 -0 -0 -0 -0 -0 -0 -0 -0 -0 -0 -0 -0 -0 -0 -0 -0 -0 -0 -0 -0 -0 -0 -0 -0 -0 -0 -0 -0 -0 -0 -0 -0 -0
-0 -0 -0 -0 -0 -0 -0 -0 -0 -0 -0 -0 -0 -0 -0 -0 -0 -0 -0 -0 -0 -0 -0 -0 -0 -0 -0 -0 -0 -0 -0 -0 -0 -0 -0 -0 -0 -0 -0 -0 -0 -0 -0 -0 -0
-0 -0 -0 -0 -0 -0 -0 -0 -0 -0 -0 -0 -0 -0 -0 -0 -0 -0 -0 -0 -0 -0 -0 -0 -0 -0 -0 -0 -0 -0 -0 -0 -0 -0 -0 -0 -0 -0 -0 -0 -0 -0 -0 -0 -0
-0 -0 -0 -0 -0 -0 -0 -0 -0 -1 -0 -0 -0 -0 -0 -0 -0 -0 -0 -0 -0 -0 -0 -0 -0 -0 -0 -0 -0 -0 -0 -0 -0 -0 -0 -0 -0 -0 -0 -0 -0 -0 -0 -0 -0
-0 -0 -0 -0 -0 -0 -0 -0 -0 -0 -0 -0 -0 -0 -0 -0 -0 -0 -0 -0 -0 -0 -0 -0 -0 -0 -0 -3 -0 -0 -0 -0 -0 -0 -0 -0 -0 -0 -0 -0 -0 -0 -0 -0 -0
-0 -0 -0 -0 -0 -0 -0 -0 -0 -0 -0 -0 -0 -0 -0 -0 -0 -0 -0 -0 -0 -0 -0 -0 -0 -0 -10 -0 -0 -0 -0 -0 -0 -0 -0 -0 -0 -0 -0 -0 -0 -0 -0 -0 -0
-0 -0 -0 -0 -0 -0 -0 -0 -0 -0 -0 -0 -0 -0 -0 -0 -0 -0 -0 -0 -0 -0 -0 -0 -0 -0 -0 -0 -0 -0 -0 -0 -0 -0 -0 -0 -0 -0 -0 -0 -0 -0 -0 -0 -0
-0 -0 -0 -0 -0 -0 -0 -0 -0 -0 -0 -0 -0 -0 -0 -0 -0 -0 -0 -0 -0 -0 -0 -0 -0 -0 -0 -0 -0 -0 -0 -0 -0 -0 -0 -0 -0 -0 -0 -0 -0 -0 -0 -0 -0
-0 -0 -0 -0 -0 -0 -0 -0 -0 -0 -0 -0 -0 -0 -0 -0 -0 -0 -0 -0 -0 -0 -0 -0 -0 -0 -0 -0 -0 -0 -0 -0 -3 -0 -0 -0 -0 -0 -0 -0 -0 -0 -0 -0 -0
-0 -0 -0 -0 -0 -0 -0 -0 -0 -0 -0 -0 -0 -0 -0 -0 -0 -0 -0 -0 -0 -0 -0 -0 -0 -0 -0 -0 -0 -0 -0 -0 -0 -0 -0 -0 -0 -0 -0 -0 -0 -0 -0 -0 -0
-0 -0 -0 -0 -0 -0 -0 -0 -0 -0 -0 -0 -0 -0 -0 -0 -0 -0 -0 -0 -0 -0 -0 -0 -0 -0 -0 -0 -0 -0 -0 -0 -0 -0 -0 -0 -0 -0 -0 -0 -0 -0 -0 -0 -0
-0 -0 -0 -0 -0 -0 -0 -0 -0 -0 -0 -0 -0 -0 -0 -0 -0 -0 -0 -0 -0 -0 -0 -0 -0 -0 -0 -0 -0 -0 -0 -0 -0 -0 -0 -0 -0 -0 -0 -0 -0 -0 -0 -0 -0
-0 -0 -0 -0 -0 -0 -0 -0 -0 -0 -0 -0 -0 -0 -0 -0 -0 -0 -0 -0 -0 -0 -0 -0 -0 -0 -0 -0 -0 -0 -0 -0 -0 -0 -0 -0 -0 -0 -0 -0 -0 -0 -0 -0 -0
Wind_Speed
13 9 12 13 12 8 17 17 15 20 19 15 13 13 13 13 12 13 14 16 15 15 15 14 12 12 11 13 14 14 18 19 19 17 15 17 14 17 18 15 16 16 15 13 9
17 14 15 14 13 8 6 11 15 14 13 12 13 13 12 11 8 10 15 14 14 14 12 13 12 11 14 15 16 17 20 20 19 17 16 16 15 18 16 17 16 15 15 15 15
20 17 14 13 12 9 10 14 18 19 20 12 10 12 12 13 14 17 16 16 14 14 14 15 13 12 15 15 17 18 20 13 16 16 17 17 18 19 18 20 18 16 20 20 18
19 18 14 14 13 10 10 12 20 19 21 12 5 10 12 16 25 17 17 15 15 15 14 11 12 15 15 18 17 18 15 15 16 17 19 20 21 22 20 19 17 21 22 22 24
20 19 16 14 13 11 10 12 14 17 20 15 8 5 11 13 15 17 17 16 16 13 12 11 12 13 15 14 14 17 16 16 16 18 19 20 24 25 26 26 28 28 28 29 29
22 18 18 15 17 12 11 12 10 8 9 9 9 9 11 14 16 16 16 15 14 12 11 12 14 11 12 14 17 15 15 16 19 19 21 24 24 24 23 23 27 27 29 30 30
25 20 17 16 17 16 9 7 1 5 12 11 11 4 1 9 14 13 10 9 9 10 10 11 12 13 12 15 14 15 20 21 21 21 23 24 28 27 25 25 27 29 31 32 33
25 22 19 20 18 17 11 9 5 9 10 14 9 7 6 10 12 9 8 8 9 9 10 10 9 10 15 12 16 18 20 24 22 21 23 24 32 27 25 27 29 31 34 36 37
26 25 24 24 20 20 15 15 8 11 10 12 7 8 7 10 5 8 8 8 8 9 10 11 11 13 14 16 19 21 25 25 25 23 25 26 31 28 23 31 38 40 38 38 38
24 20 28 27 28 24 16 14 9 9 11 10 10 6 8 5 6 8 9 9 8 10 9 12 13 14 16 19 25 24 24 25 26 26 27 32 39 39 37 38 41 42 40 39 38
13 25 28 23 15 10 18 10 14 10 5 6 3 7 5 6 4 7 9 9 8 9 13 13 14 17 18 16 17 19 23 27 27 27 34 36 41 44 43 40 40 37 34 31 29
16 24 17 22 23 13 12 8 10 20 9 3 3 3 3 7 4 8 9 7 8 9 10 12 15 14 14 16 18 22 27 31 32 29 34 37 46 41 34 28 29 28 25 29 33
20 25 21 25 29 29 19 11 11 11 6 2 3 3 6 6 6 9 9 8 6 7 10 14 14 16 17 18 20 23 26 28 31 34 28 36 35 27 25 28 22 25 27 30 34
20 19 24 25 28 24 23 14 12 10 4 4 7 8 10 9 8 10 11 11 10 8 9 11 14 14 16 18 19 23 21 23 27 30 32 29 35 32 26 23 24 27 31 35 39
19 20 24 20 21 19 15 13 13 13 8 12 8 11 10 6 7 10 11 9 7 10 12 13 13 14 15 17 17 19 21 24 25 27 30 27 30 25 24 25 28 32 36 39 42
11 13 19 17 14 11 9 10 14 10 7 10 11 8 6 5 8 11 10 9 10 9 9 11 13 14 14 15 16 19 20 21 22 24 29 24 27 29 26 27 31 35 37 41 43
10 7 11 13 9 7 8 12 7 3 12 11 9 8 6 8 8 9 9 10 12 11 13 14 14 15 15 16 17 18 20 25 27 27 30 23 29 27 23 25 30 36 38 39 37
10 9 12 9 8 8 11 8 5 8 9 10 7 6 8 11 10 10 9 10 12 11 10 12 14 13 13 15 16 18 17 21 29 30 32 25 29 25 19 21 30 32 31 33 33
12 12 13 11 9 10 6 24 22 11 7 4 6 7 8 10 10 11 11 11 12 13 12 12 14 14 14 15 15 16 19 17 22 22 26 21 20 27 23 22 26 27 27 28 27
18 17 17 11 12 16 24 27 24 20 4 8 9 10 9 11 10 11 12 13 12 14 14 12 15 13 14 15 16 15 14 15 16 18 19 21 21 20 18 19 20 21 18 20 22
19 23 16 12 17 21 30 28 26 22 20 19 20 21 19 11 11 12 12 13 12 12 14 12 15 16 16 17 7 18 19 20 18 18 18 17 18 18 16 14 15 17 19 24 28
18 23 15 16 24 24 28 25 23 21 18 19 19 20 21 21 20 19 20 18 21 20 18 19 18 19 20 17 19 20 20 20 18 18 19 18 18 19 14 10 11 20 25 28 21
18 17 16 20 25 26 23 24 22 22 19 19 19 18 18 20 18 19 19 17 20 21 18 19 18 17 16 17 19 20 21 22 20 19 20 19 19 16 14 12 12 9 8 12 10
17 18 16 20 23 25 23 21 20 18 18 17 18 17 18 18 17 18 18 18 19 19 18 18 17 18 17 16 17 18 19 21 23 21 20 21 21 18 17 14 12 11 2 3 7
16 17 17 19 17 19 19 20 19 17 16 17 16 17 18 18 18 17 17 17 18 18 18 16 15 16 18 19 20 21 22 22 24 23 18 17 17 19 18 14 13 8 7 7 8
14 15 15 17 17 16 15 17 19 17 17 17 17 16 17 16 16 15 16 16 16 18 18 16 14 13 15 16 18 19 19 21 21 21 22 20 19 21 19 15 10 9 11 11 10
16 15 14 14 15 15 14 15 16 18 17 17 16 15 15 14 14 14 15 15 15 16 17 16 13 11 14 13 16 16 16 20 18 16 16 15 14 14 13 10 11 15 14 13 11
Wind_Direction
28 21 21 10 7 323 249 253 263 258 231 232 228 235 239 242 245 249 252 263 268 270 272 266 265 264 270 268 275 280 268 265 271 273 277 287 291 297 293 301 303 304 309 313 320
19 17 21 20 358 322 283 248 241 254 232 227 224 229 230 233 233 247 266 272 269 272 262 255 251 259 261 263 271 268 265 268 276 277 278 288 292 295 299 299 303 309 314 313 309
14 7 12 17 7 330 281 254 251 233 231 233 223 221 222 238 239 254 274 270 266 269 263 257 259 262 260 262 268 269 265 273 278 283 286 286 289 295 296 293 295 301 299 299 303
360 358 339 3 351 338 293 263 247 244 238 228 198 211 224 249 235 259 273 265 264 265 260 248 254 258 257 255 270 264 277 279 281 287 287 285 288 290 294 299 303 299 299 300 296
348 347 341 345 347 339 309 278 260 241 231 216 195 182 240 241 248 265 268 262 263 261 256 247 252 259 255 262 272 270 274 284 286 288 290 291 288 289 288 291 290 291 292 292 293
335 320 342 332 19 350 306 307 267 230 202 201 217 253 252 234 262 269 265 261 262 258 258 258 260 270 267 269 270 278 280 282 286 289 291 288 291 294 295 300 296 295 294 294 295
345 333 349 345 17 35 345 345 199 144 189 204 228 194 137 253 268 266 267 263 266 261 253 271 268 269 265 265 277 280 275 281 285 288 290 295 287 289 296 299 297 295 296 295 295
358 355 3 43 49 39 40 54 163 143 181 203 225 224 240 275 263 262 270 266 271 269 264 278 280 277 273 276 279 277 280 274 283 289 292 295 284 294 298 300 297 298 296 295 294
16 15 30 29 81 60 69 65 106 145 173 201 211 202 232 255 275 269 273 263 267 268 276 280 280 272 274 267 271 276 273 276 282 290 291 290 289 298 300 299 293 293 295 295 294
25 21 40 47 59 64 62 78 114 167 195 219 220 213 238 244 262 261 268 277 270 268 273 277 280 272 275 271 267 272 275 280 282 291 292 290 285 289 294 294 293 294 295 296 296
124 105 103 115 140 186 177 203 185 180 163 194 192 106 213 241 304 286 275 271 275 275 255 276 263 261 270 283 284 282 281 281 287 295 291 289 287 289 294 296 296 297 300 303 306
110 108 134 104 115 151 169 167 182 175 121 107 87 64 289 264 311 317 294 295 281 265 271 272 266 279 289 291 287 283 282 284 288 294 294 292 288 294 298 304 305 308 312 310 308
100 110 128 112 112 113 127 120 156 173 141 108 268 324 280 323 310 299 296 292 323 293 285 274 280 289 288 289 286 289 287 289 289 295 299 298 295 302 307 311 315 316 315 313 312
109 114 127 122 118 119 128 158 181 207 173 288 279 293 277 275 297 297 284 285 301 297 303 301 294 295 292 290 293 286 300 298 298 298 292 307 290 299 309 315 317 317 316 314 312
110 116 128 132 127 125 136 163 187 206 238 257 271 251 269 302 266 288 273 323 328 302 296 293 298 297 296 297 303 297 303 302 302 300 300 301 297 298 312 310 315 316 317 317 316
124 126 131 135 137 149 177 184 180 237 251 251 261 270 270 310 271 264 289 304 286 314 328 308 298 302 304 308 310 305 307 308 307 307 296 303 304 301 308 313 317 318 321 322 320
126 159 153 143 154 189 194 184 233 260 219 220 241 249 266 258 270 290 299 296 289 293 293 294 296 295 302 308 313 320 313 302 299 299 297 310 304 305 314 319 321 322 321 316 312
118 130 130 177 199 188 183 236 350 224 224 226 250 278 252 250 281 290 316 319 296 310 310 306 304 314 317 319 321 324 322 307 299 301 304 312 303 315 329 327 309 305 298 311 321
115 117 122 126 142 157 230 127 148 194 226 305 264 293 284 294 284 282 311 322 315 310 323 321 315 324 322 322 329 328 318 330 316 319 312 317 323 272 242 256 284 293 298 311 308
106 108 110 119 123 126 122 118 132 164 20 311 306 300 311 274 309 316 316 315 328 316 315 329 322 326 327 327 323 325 324 335 322 321 316 257 238 215 238 268 276 282 276 289 298
108 99 107 116 119 113 105 115 127 140 147 147 147 150 171 185 287 314 316 312 332 326 315 329 283 280 275 234 185 252 244 244 239 220 214 226 217 201 215 243 270 278 289 307 313
109 98 108 115 100 106 106 117 130 135 143 142 147 145 144 146 151 158 160 175 164 146 186 180 201 209 199 221 176 200 208 198 212 212 212 217 205 183 179 186 231 290 307 317 293
106 111 106 108 101 102 112 115 119 126 133 139 142 147 150 149 151 159 163 182 166 164 173 171 180 188 195 200 200 207 209 203 213 217 201 198 193 194 192 217 231 229 245 259 261
107 104 111 104 107 108 111 116 121 131 138 147 148 152 152 156 159 162 170 170 171 179 184 180 188 187 187 196 205 198 198 196 194 202 206 196 226 230 232 230 228 244 204 169 226
105 104 114 107 112 116 119 121 123 131 143 147 149 156 150 145 147 156 163 171 175 179 179 187 198 205 211 217 217 219 216 204 199 195 188 209 212 234 237 231 238 221 111 168 201
107 106 115 116 118 119 128 129 129 135 134 138 138 146 153 153 151 154 160 169 177 174 177 190 196 218 227 223 207 210 207 200 197 196 204 213 228 232 233 230 187 155 174 195 209
91 103 111 120 118 119 127 132 137 135 139 140 143 149 158 171 180 186 186 186 182 178 177 185 186 195 199 210 246 220 189 178 177 175 183 187 193 202 214 196 185 199 201 206 200